OK,82,25,828,82,2014-10-01T01:40:00,0,28072598,201881
OK,82,25,828,82,2014-10-01T01:45:00,0,28073045,201881
OK,82,25,828,82,2014-10-01T01:50:00,0,28073494,201881
OK,82,25,828,82,2014-10-01T01:55:00,0,28073812,201881
OK,82,25,828,82,2014-10-01T02:00:00,0,28074260,201881
OK,82,25,828,82,2014-10-01T02:05:00,0,28074703,201881
OK,82,25,828,82,2014-10-01T02:10:00,0,28075149,201881
OK,82,25,828,82,2014-10-01T02:20:00,0,28075598,201881
OK,82,25,828,82,2014-10-01T02:25:00,0,28076430,201881
OK,82,25,828,82,2014-10-01T02:30:00,0,28076879,201881
OK,99,21,828,99,2014-10-01T02:35:00,1,28077328,201881
OK,99,21,828,99,2014-10-01T02:40:00,1,28077734,201881
OK,99,21,828,99,2014-10-01T02:45:00,0,28078180,201881
OK,99,21,828,99,2014-10-01T02:50:00,0,28078625,201881
OK,99,21,828,99,2014-10-01T02:55:00,0,28079074,201881
OK,99,21,828,99,2014-10-01T03:00:00,0,28079516,201881
OK,99,21,828,99,2014-10-01T03:05:00,0,28079965,201881
OK,99,21,828,99,2014-10-01T03:10:00,0,28080303,201881
OK,99,21,828,99,2014-10-01T03:15:00,0,28080748,201881
OK,99,21,828,99,2014-10-01T03:20:00,0,28081197,201881
OK,99,21,828,99,2014-10-01T03:25:00,0,28081644,201881
OK,99,21,828,99,2014-10-01T03:30:00,0,28082093,201881
OK,99,21,828,99,2014-10-01T03:35:00,0,28082531,201881
OK,99,21,828,99,2014-10-01T03:40:00,0,28082959,201881
OK,81,26,828,81,2014-10-01T03:45:00,1,28083407,201881
OK,124,16,828,124,2014-10-01T03:50:00,1,28083856,201881
OK,90,23,828,90,2014-10-01T03:55:00,1,28084302,201881
OK,90,23,828,90,2014-10-01T04:00:00,1,28084728,201881
OK,90,23,828,90,2014-10-01T04:05:00,0,28085171,201881
OK,69,30,828,69,2014-10-01T04:10:00,1,28085617,201881
OK,69,30,828,69,2014-10-01T04:15:00,1,28086065,201881
OK,62,33,828,62,2014-10-01T04:20:00,1,28086508,201881
OK,62,33,828,62,2014-10-01T04:25:00,1,28086956,201881
OK,65,32,828,65,2014-10-01T04:30:00,1,28087401,201881
OK,56,37,828,56,2014-10-01T04:35:00,2,28087850,201881
OK,75,28,828,75,2014-10-01T04:40:00,2,28088278,201881
OK,100,21,828,100,2014-10-01T04:45:00,3,28088723,201881
OK,110,19,828,110,2014-10-01T04:50:00,3,28089155,201881
OK,110,19,828,110,2014-10-01T04:55:00,1,28089602,201881
OK,169,12,828,169,2014-10-01T05:05:00,0,28090051,201881
OK,169,12,828,169,2014-10-01T05:10:00,0,28090844,201881
OK,84,25,828,84,2014-10-01T05:15:00,3,28091293,201881
OK,85,24,828,85,2014-10-01T05:20:00,4,28091713,201881
OK,71,29,828,71,2014-10-01T05:25:00,4,28092159,201881
OK,72,29,828,72,2014-10-01T05:30:00,4,28092604,201881
OK,86,24,828,86,2014-10-01T05:35:00,5,28093045,201881
OK,74,28,828,74,2014-10-01T05:40:00,4,28093475,201881
OK,218,9,828,218,2014-10-01T05:45:00,6,28093924,201881
OK,233,9,828,233,2014-10-01T05:50:00,5,28094339,201881
OK,199,10,828,199,2014-10-01T05:55:00,4,28094780,201881
OK,236,8,828,236,2014-10-01T06:00:00,2,28095227,201881
OK,200,10,828,200,2014-10-01T06:05:00,3,28095676,201881
OK,208,10,828,208,2014-10-01T06:10:00,5,28096092,201881
OK,220,9,828,220,2014-10-01T06:15:00,4,28096538,201881
OK,205,10,828,205,2014-10-01T06:20:00,0,28096975,201881
OK,164,12,828,164,2014-10-01T06:25:00,2,28097421,201881
OK,164,12,828,164,2014-10-01T06:30:00,2,28097870,201881
OK,150,14,828,150,2014-10-01T06:35:00,1,28098310,201881
OK,124,16,828,124,2014-10-01T06:40:00,2,28098752,201881
OK,174,12,828,174,2014-10-01T06:45:00,7,28099199,201881
OK,174,12,828,174,2014-10-01T06:50:00,7,28099546,201881
OK,141,14,828,141,2014-10-01T06:55:00,4,28099991,201881
OK,101,20,828,101,2014-10-01T07:00:00,4,28100302,201881
OK,101,20,828,101,2014-10-01T07:05:00,8,28100747,201881
OK,144,14,828,144,2014-10-01T07:10:00,2,28101121,201881
OK,57,36,828,57,2014-10-01T07:15:00,4,28101567,201881
OK,63,33,828,63,2014-10-01T07:20:00,4,28102004,201881
OK,64,32,828,64,2014-10-01T07:25:00,2,28102452,201881
OK,85,24,828,85,2014-10-01T07:30:00,1,28102889,201881
OK,75,28,828,75,2014-10-01T07:35:00,2,28103326,201881
OK,75,28,828,75,2014-10-01T07:40:00,2,28103772,201881
OK,85,24,828,85,2014-10-01T07:45:00,1,28104216,201881
OK,80,26,828,80,2014-10-01T07:50:00,3,28104658,201881
OK,80,26,828,80,2014-10-01T07:55:00,3,28105102,201881
OK,101,20,828,101,2014-10-01T08:00:00,0,28105544,201881
OK,100,21,828,100,2014-10-01T08:05:00,3,28105991,201881
OK,99,21,828,99,2014-10-01T08:10:00,3,28106429,201881
OK,81,26,828,81,2014-10-01T08:15:00,4,28106837,201881
OK,78,27,828,78,2014-10-01T08:20:00,5,28107266,201881
OK,114,18,828,114,2014-10-01T08:25:00,4,28107715,201881
OK,104,20,828,104,2014-10-01T08:30:00,1,28108154,201881
OK,55,38,828,55,2014-10-01T08:35:00,1,28108603,201881
OK,95,22,828,95,2014-10-01T08:40:00,2,28109033,201881
OK,103,20,828,103,2014-10-01T08:45:00,3,28109480,201881
OK,82,25,828,82,2014-10-01T08:50:00,5,28109826,201881
OK,91,23,828,91,2014-10-01T08:55:00,5,28110272,201881
OK,100,21,828,100,2014-10-01T09:00:00,3,28110697,201881
OK,120,17,828,120,2014-10-01T09:05:00,1,28111144,201881
OK,129,16,828,129,2014-10-01T09:10:00,1,28111574,201881
OK,120,17,828,120,2014-10-01T09:15:00,2,28112022,201881
OK,112,18,828,112,2014-10-01T09:20:00,7,28112365,201881
OK,105,20,828,105,2014-10-01T09:25:00,8,28112812,201881
OK,107,19,828,107,2014-10-01T09:30:00,7,28113238,201881
OK,108,19,828,108,2014-10-01T09:35:00,5,28113685,201881
OK,90,23,828,90,2014-10-01T09:40:00,2,28114118,201881
OK,90,23,828,90,2014-10-01T09:45:00,0,28114566,201881
OK,88,23,828,88,2014-10-01T09:50:00,6,28114922,201881
OK,106,19,828,106,2014-10-01T09:55:00,3,28115369,201881
OK,122,17,828,122,2014-10-01T10:00:00,3,28115783,201881
OK,122,17,828,122,2014-10-01T10:05:00,5,28116230,201881
OK,134,15,828,134,2014-10-01T10:10:00,3,28116640,201881
OK,109,19,828,109,2014-10-01T10:15:00,2,28117087,201881
OK,68,30,828,68,2014-10-01T10:20:00,7,28117513,201881
OK,69,30,828,69,2014-10-01T10:25:00,8,28117961,201881
OK,68,30,828,68,2014-10-01T10:30:00,4,28118406,201881
OK,67,31,828,67,2014-10-01T10:35:00,4,28118853,201881
OK,80,26,828,80,2014-10-01T10:40:00,4,28119297,201881
OK,98,21,828,98,2014-10-01T10:45:00,4,28119745,201881
OK,85,24,828,85,2014-10-01T10:50:00,4,28120193,201881
OK,76,27,828,76,2014-10-01T10:55:00,8,28120642,201881
OK,73,28,828,73,2014-10-01T11:00:00,5,28121027,201881
OK,74,28,828,74,2014-10-01T11:05:00,1,28121474,201881
OK,87,24,828,87,2014-10-01T11:10:00,2,28121913,201881
OK,101,20,828,101,2014-10-01T11:15:00,3,28122361,201881
OK,104,20,828,104,2014-10-01T11:20:00,3,28122803,201881
OK,102,20,828,102,2014-10-01T11:25:00,3,28123251,201881
OK,137,15,828,137,2014-10-01T11:30:00,12,28123685,201881
OK,153,13,828,153,2014-10-01T11:35:00,11,28124132,201881
OK,76,27,828,76,2014-10-01T11:40:00,6,28124538,201881
OK,76,27,828,76,2014-10-01T11:45:00,5,28124983,201881
OK,61,34,828,61,2014-10-01T11:50:00,3,28125412,201881
OK,87,24,828,87,2014-10-01T11:55:00,3,28125861,201881
OK,87,24,828,87,2014-10-01T12:00:00,3,28126215,201881
OK,92,22,828,92,2014-10-01T12:05:00,4,28126662,201881
OK,92,22,828,92,2014-10-01T12:10:00,4,28127111,201881
OK,89,23,828,89,2014-10-01T12:15:00,3,28127560,201881
OK,73,28,828,73,2014-10-01T12:20:00,4,28127990,201881
OK,121,17,828,121,2014-10-01T12:25:00,6,28128437,201881
OK,132,15,828,132,2014-10-01T12:30:00,6,28128873,201881
OK,95,22,828,95,2014-10-01T12:35:00,4,28129321,201881
OK,59,35,828,59,2014-10-01T12:40:00,2,28129756,201881
OK,47,44,828,47,2014-10-01T12:45:00,0,28130204,201881
OK,50,42,828,50,2014-10-01T12:50:00,3,28130634,201881
OK,92,22,828,92,2014-10-01T12:55:00,8,28131081,201881
OK,101,20,828,101,2014-10-01T13:00:00,7,28131520,201881
OK,208,10,828,208,2014-10-01T13:05:00,5,28131967,201881
OK,131,16,828,131,2014-10-01T13:10:00,8,28132406,201881
OK,170,12,828,170,2014-10-01T13:15:00,7,28132852,201881
OK,248,8,828,248,2014-10-01T13:20:00,7,28133290,201881
OK,186,11,828,186,2014-10-01T13:25:00,5,28133739,201881
OK,162,13,828,162,2014-10-01T13:30:00,3,28134178,201881
OK,243,8,828,243,2014-10-01T13:35:00,6,28134627,201881
OK,247,8,828,247,2014-10-01T13:40:00,5,28135047,201881
OK,143,14,828,143,2014-10-01T13:45:00,11,28135495,201881
OK,153,13,828,153,2014-10-01T13:50:00,6,28135932,201881
OK,92,22,828,92,2014-10-01T13:55:00,4,28136381,201881
OK,89,23,828,89,2014-10-01T14:00:00,5,28136821,201881
OK,69,30,828,69,2014-10-01T14:05:00,2,28137270,201881
OK,82,25,828,82,2014-10-01T14:10:00,5,28137705,201881
OK,129,16,828,129,2014-10-01T14:15:00,4,28138153,201881
OK,174,12,828,174,2014-10-01T14:20:00,6,28138582,201881
OK,220,9,828,220,2014-10-01T14:25:00,8,28139030,201881
OK,216,9,828,216,2014-10-01T14:30:00,10,28139442,201881
OK,205,10,828,205,2014-10-01T14:35:00,8,28139890,201881
OK,260,8,828,260,2014-10-01T14:40:00,7,28140333,201881
OK,259,8,828,259,2014-10-01T14:45:00,8,28140781,201881
OK,241,8,828,241,2014-10-01T14:50:00,5,28141209,201881
OK,241,8,828,241,2014-10-01T14:55:00,3,28141656,201881
OK,275,7,828,275,2014-10-01T15:00:00,2,28142086,201881
OK,291,7,828,291,2014-10-01T15:05:00,3,28142533,201881
OK,142,14,828,142,2014-10-01T15:10:00,4,28142962,201881
OK,101,20,828,101,2014-10-01T15:15:00,6,28143409,201881
OK,110,19,828,110,2014-10-01T15:20:00,6,28143857,201881
OK,106,19,828,106,2014-10-01T15:25:00,9,28144306,201881
OK,51,41,828,51,2014-10-01T15:30:00,5,28144731,201881
OK,65,32,828,65,2014-10-01T15:35:00,4,28145141,201881
OK,64,32,828,64,2014-10-01T15:40:00,3,28145590,201881
OK,95,22,828,95,2014-10-01T15:45:00,2,28146039,201881
OK,138,15,828,138,2014-10-01T15:50:00,1,28146488,201881
OK,138,15,828,138,2014-10-01T15:55:00,0,28146901,201881
OK,53,39,828,53,2014-10-01T16:00:00,1,28147340,201881
OK,53,39,828,53,2014-10-01T16:05:00,1,28147789,201881
OK,55,38,828,55,2014-10-01T16:10:00,1,28148192,201881
OK,35,60,828,35,2014-10-01T16:15:00,2,28148639,201881
OK,61,34,828,61,2014-10-01T16:20:00,2,28149080,201881
OK,106,19,828,106,2014-10-01T16:25:00,1,28149527,201881
OK,106,19,828,106,2014-10-01T16:30:00,0,28149955,201881
OK,106,19,828,106,2014-10-01T16:35:00,0,28150402,201881
OK,109,19,828,109,2014-10-01T16:40:00,1,28150822,201881
OK,109,19,828,109,2014-10-01T16:45:00,1,28151269,201881
OK,101,20,828,101,2014-10-01T16:55:00,2,28151718,201881
OK,71,29,828,71,2014-10-01T17:00:00,1,28152167,201881
OK,71,29,828,71,2014-10-01T17:05:00,0,28152613,201881
OK,72,29,828,72,2014-10-01T17:10:00,4,28153060,201881
OK,72,29,828,72,2014-10-01T17:15:00,4,28153509,201881
OK,98,21,828,98,2014-10-01T17:20:00,1,28153922,201881
OK,98,21,828,98,2014-10-01T17:25:00,0,28154368,201881
OK,44,47,828,44,2014-10-01T17:30:00,1,28154810,201881
OK,44,47,828,44,2014-10-01T17:35:00,1,28155258,201881
OK,44,47,828,44,2014-10-01T17:40:00,0,28155679,201881
OK,91,23,828,91,2014-10-01T17:45:00,1,28156125,201881
OK,90,23,828,90,2014-10-01T17:50:00,2,28156574,201881
OK,92,22,828,92,2014-10-01T17:55:00,2,28157012,201881
OK,112,18,828,112,2014-10-01T18:00:00,1,28157444,201881
OK,112,18,828,112,2014-10-01T18:05:00,0,28157890,201881
OK,101,20,828,101,2014-10-01T18:10:00,1,28158334,201881
OK,113,18,828,113,2014-10-01T18:15:00,2,28158781,201881
OK,126,16,828,126,2014-10-01T18:20:00,1,28159226,201881
OK,126,16,828,126,2014-10-01T18:25:00,0,28159562,201881
OK,126,16,828,126,2014-10-01T18:30:00,0,28160010,201881
OK,76,27,828,76,2014-10-01T18:35:00,1,28160459,201881
OK,76,27,828,76,2014-10-01T18:40:00,1,28160898,201881
OK,76,27,828,76,2014-10-01T18:45:00,0,28161346,201881
OK,97,21,828,97,2014-10-01T18:50:00,1,28161764,201881
OK,42,50,828,42,2014-10-01T19:00:00,2,28162212,201881
OK,59,35,828,59,2014-10-01T19:05:00,4,28163046,201881
OK,66,31,828,66,2014-10-01T19:10:00,6,28163493,201881
OK,76,27,828,76,2014-10-01T19:15:00,4,28163942,201881
OK,59,35,828,59,2014-10-01T19:20:00,0,28164375,201881
OK,59,35,828,59,2014-10-01T19:25:00,0,28164822,201881
OK,59,35,828,59,2014-10-01T19:30:00,0,28165249,201881
OK,60,35,828,60,2014-10-01T19:35:00,1,28165695,201881
OK,60,35,828,60,2014-10-01T19:40:00,1,28166136,201881
OK,60,35,828,60,2014-10-01T19:45:00,0,28166498,201881
OK,60,35,828,60,2014-10-01T19:50:00,0,28166947,201881
OK,60,35,828,60,2014-10-01T19:55:00,0,28167376,201881
OK,60,35,828,60,2014-10-01T20:00:00,0,28167810,201881
OK,60,35,828,60,2014-10-01T20:05:00,0,28168258,201881
OK,51,41,828,51,2014-10-01T20:10:00,1,28168703,201881
OK,68,30,828,68,2014-10-01T20:15:00,2,28169152,201881
OK,85,24,828,85,2014-10-01T20:20:00,1,28169600,201881
OK,85,24,828,85,2014-10-01T20:25:00,0,28170026,201881
OK,85,24,828,85,2014-10-01T20:30:00,0,28170471,201881
OK,85,24,828,85,2014-10-01T20:35:00,0,28170919,201881
OK,85,24,828,85,2014-10-01T20:40:00,0,28171356,201881
OK,87,24,828,87,2014-10-01T20:45:00,1,28171802,201881
OK,87,24,828,87,2014-10-01T20:50:00,1,28172250,201881
OK,52,40,828,52,2014-10-01T20:55:00,1,28172696,201881
OK,52,40,828,52,2014-10-01T21:00:00,1,28173142,201881
OK,52,40,828,52,2014-10-01T21:05:00,0,28173591,201881
OK,52,40,828,52,2014-10-01T21:10:00,0,28174032,201881
OK,76,27,828,76,2014-10-01T21:15:00,1,28174481,201881
OK,76,27,828,76,2014-10-01T21:20:00,0,28174907,201881
OK,76,27,828,76,2014-10-01T21:25:00,0,28175303,201881
OK,76,27,828,76,2014-10-01T21:30:00,0,28175752,201881
OK,76,27,828,76,2014-10-01T21:35:00,0,28176201,201881
OK,76,27,828,76,2014-10-01T21:45:00,0,28176650,201881
OK,76,27,828,76,2014-10-01T21:50:00,0,28177446,201881
OK,76,27,828,76,2014-10-01T21:55:00,0,28177892,201881
OK,76,27,828,76,2014-10-01T22:00:00,0,28178341,201881
OK,76,27,828,76,2014-10-01T22:05:00,0,28178788,201881
OK,76,27,828,76,2014-10-01T22:10:00,0,28179224,201881
OK,76,27,828,76,2014-10-01T22:15:00,0,28179665,201881
OK,76,27,828,76,2014-10-01T22:20:00,0,28180112,201881
OK,76,27,828,76,2014-10-01T22:25:00,0,28180511,201881
OK,76,27,828,76,2014-10-01T22:30:00,0,28180959,201881
OK,48,43,828,48,2014-10-01T22:35:00,1,28181383,201881
OK,45,46,828,45,2014-10-01T22:40:00,2,28181831,201881
OK,43,48,828,43,2014-10-01T22:45:00,0,28182278,201881
OK,43,48,828,43,2014-10-01T22:50:00,0,28182727,201881
OK,43,48,828,43,2014-10-01T22:55:00,0,28183144,201881
OK,43,48,828,43,2014-10-01T23:00:00,0,28183577,201881
OK,43,48,828,43,2014-10-01T23:05:00,0,28184022,201881
OK,43,48,828,43,2014-10-01T23:10:00,0,28184471,201881
OK,43,48,828,43,2014-10-01T23:15:00,0,28184906,201881
OK,43,48,828,43,2014-10-01T23:20:00,0,28185354,201881
OK,43,48,828,43,2014-10-01T23:25:00,0,28185785,201881
OK,43,48,828,43,2014-10-01T23:30:00,0,28186177,201881
OK,43,48,828,43,2014-10-01T23:40:00,0,28187024,201881
OK,43,48,828,43,2014-10-01T23:45:00,0,28187466,201881
OK,43,48,828,43,2014-10-01T23:55:00,0,28188356,201881
OK,43,48,828,43,2014-10-02T00:00:00,0,28188792,201881
OK,43,48,828,43,2014-10-02T00:05:00,0,28189241,201881
OK,43,48,828,43,2014-10-02T00:10:00,0,28189665,201881
OK,43,48,828,43,2014-10-02T00:15:00,0,28190112,201881
OK,43,48,828,43,2014-10-02T00:20:00,0,28190467,201881
OK,43,48,828,43,2014-10-02T00:25:00,0,28190914,201881
OK,43,48,828,43,2014-10-02T00:30:00,0,28191363,201881
OK,82,25,828,82,2014-10-02T00:35:00,0,28191671,201881
OK,82,25,828,82,2014-10-02T00:40:00,0,28192118,201881
OK,82,25,828,82,2014-10-02T00:45:00,0,28192552,201881
OK,82,25,828,82,2014-10-02T00:50:00,0,28192995,201881
OK,82,25,828,82,2014-10-02T00:55:00,0,28193362,201881
OK,82,25,828,82,2014-10-02T01:05:00,0,28194260,201881
OK,82,25,828,82,2014-10-02T01:15:00,0,28194709,201881
OK,63,33,828,63,2014-10-02T01:20:00,1,28195394,201881
OK,63,33,828,63,2014-10-02T01:30:00,0,28195843,201881
OK,63,33,828,63,2014-10-02T01:35:00,0,28196576,201881
OK,63,33,828,63,2014-10-02T01:40:00,0,28197001,201881
OK,63,33,828,63,2014-10-02T01:45:00,0,28197448,201881
OK,63,33,828,63,2014-10-02T01:50:00,0,28197896,201881
OK,63,33,828,63,2014-10-02T01:55:00,0,28198344,201881
OK,63,33,828,63,2014-10-02T02:05:00,0,28198793,201881
OK,63,33,828,63,2014-10-02T02:10:00,0,28199607,201881
OK,63,33,828,63,2014-10-02T02:15:00,0,28200049,201881
OK,63,33,828,63,2014-10-02T02:20:00,0,28200492,201881
OK,63,33,828,63,2014-10-02T02:25:00,0,28200941,201881
OK,63,33,828,63,2014-10-02T02:30:00,0,28201372,201881
OK,60,35,828,60,2014-10-02T02:45:00,0,28202270,201881
OK,60,35,828,60,2014-10-02T02:50:00,0,28202712,201881
OK,60,35,828,60,2014-10-02T02:55:00,0,28203160,201881
OK,60,35,828,60,2014-10-02T03:00:00,0,28203595,201881
OK,60,35,828,60,2014-10-02T03:10:00,0,28204044,201881
OK,60,35,828,60,2014-10-02T03:25:00,0,28204493,201881
OK,60,35,828,60,2014-10-02T03:30:00,0,28204942,201881
OK,92,22,828,92,2014-10-02T03:35:00,1,28205372,201881
OK,92,22,828,92,2014-10-02T03:40:00,1,28205817,201881
OK,31,67,828,31,2014-10-02T03:45:00,0,28206200,201881
OK,31,67,828,31,2014-10-02T03:55:00,0,28207098,201881
OK,91,23,828,91,2014-10-02T04:00:00,2,28207520,201881
OK,91,23,828,91,2014-10-02T04:05:00,2,28207966,201881
OK,91,23,828,91,2014-10-02T04:10:00,0,28208396,201881
OK,91,23,828,91,2014-10-02T04:15:00,0,28208842,201881
OK,91,23,828,91,2014-10-02T04:20:00,0,28209281,201881
OK,91,23,828,91,2014-10-02T04:25:00,0,28209729,201881
OK,54,39,828,54,2014-10-02T04:30:00,1,28210153,201881
OK,54,39,828,54,2014-10-02T04:35:00,0,28210601,201881
OK,75,28,828,75,2014-10-02T04:40:00,3,28211029,201881
OK,75,28,828,75,2014-10-02T04:45:00,0,28211470,201881
OK,75,28,828,75,2014-10-02T04:50:00,0,28211848,201881
OK,40,52,828,40,2014-10-02T04:55:00,1,28212297,201881
OK,40,52,828,40,2014-10-02T05:00:00,0,28212726,201881
OK,100,21,828,100,2014-10-02T05:05:00,3,28213175,201881
OK,52,40,828,52,2014-10-02T05:10:00,0,28213614,201881
OK,85,24,828,85,2014-10-02T05:15:00,1,28214062,201881
OK,85,24,828,85,2014-10-02T05:20:00,1,28214478,201881
OK,84,25,828,84,2014-10-02T05:25:00,3,28214924,201881
OK,115,18,828,115,2014-10-02T05:30:00,1,28215343,201881
OK,113,18,828,113,2014-10-02T05:40:00,5,28215789,201881
OK,134,15,828,134,2014-10-02T05:45:00,1,28216568,201881
OK,134,15,828,134,2014-10-02T05:50:00,0,28217015,201881
OK,201,10,828,201,2014-10-02T05:55:00,3,28217464,201881
OK,186,11,828,186,2014-10-02T06:00:00,5,28217903,201881
OK,140,15,828,140,2014-10-02T06:05:00,4,28218352,201881
OK,105,20,828,105,2014-10-02T06:10:00,0,28218774,201881
OK,191,11,828,191,2014-10-02T06:15:00,5,28219221,201881
OK,172,12,828,172,2014-10-02T06:20:00,2,28219596,201881
OK,69,30,828,69,2014-10-02T06:25:00,3,28220043,201881
OK,66,31,828,66,2014-10-02T06:30:00,5,28220479,201881
OK,97,21,828,97,2014-10-02T06:35:00,5,28220926,201881
OK,85,24,828,85,2014-10-02T06:40:00,4,28221321,201881
OK,66,31,828,66,2014-10-02T06:45:00,2,28221593,201881
OK,45,46,828,45,2014-10-02T07:00:00,3,28222187,201881
OK,104,20,828,104,2014-10-02T07:05:00,5,28222636,201881
OK,90,23,828,90,2014-10-02T07:10:00,8,28223069,201881
OK,67,31,828,67,2014-10-02T07:15:00,4,28223503,201881
OK,76,27,828,76,2014-10-02T07:20:00,0,28223950,201881
OK,87,24,828,87,2014-10-02T07:25:00,5,28224305,201881
OK,96,21,828,96,2014-10-02T07:30:00,1,28224754,201881
OK,113,18,828,113,2014-10-02T07:35:00,1,28225203,201881
OK,113,18,828,113,2014-10-02T07:40:00,0,28225529,201881
OK,43,48,828,43,2014-10-02T07:50:00,5,28226415,201881
OK,49,42,828,49,2014-10-02T07:55:00,6,28226864,201881
OK,119,17,828,119,2014-10-02T08:00:00,1,28227282,201881
OK,46,45,828,46,2014-10-02T08:05:00,2,28227728,201881
OK,36,58,828,36,2014-10-02T08:10:00,0,28228089,201881
OK,69,30,828,69,2014-10-02T08:15:00,2,28228536,201881
OK,75,28,828,75,2014-10-02T08:20:00,1,28228948,201881
OK,124,16,828,124,2014-10-02T08:25:00,0,28229395,201881
OK,124,16,828,124,2014-10-02T08:30:00,0,28229748,201881
OK,101,20,828,101,2014-10-02T08:35:00,2,28230194,201881
OK,80,26,828,80,2014-10-02T08:40:00,0,28230569,201881
OK,80,26,828,80,2014-10-02T08:45:00,0,28231009,201881
OK,63,33,828,63,2014-10-02T08:50:00,7,28231433,201881
OK,29,72,828,29,2014-10-02T08:55:00,2,28231881,201881
OK,29,72,828,29,2014-10-02T09:00:00,0,28232225,201881
OK,29,72,828,29,2014-10-02T09:10:00,0,28232672,201881
OK,111,18,828,111,2014-10-02T09:15:00,1,28233121,201881
OK,111,18,828,111,2014-10-02T09:20:00,1,28233546,201881
OK,78,27,828,78,2014-10-02T09:25:00,3,28233994,201881
OK,82,25,828,82,2014-10-02T09:30:00,0,28234329,201881
OK,88,23,828,88,2014-10-02T09:35:00,4,28234776,201881
OK,90,23,828,90,2014-10-02T09:40:00,2,28235203,201881
OK,78,27,828,78,2014-10-02T09:45:00,7,28235652,201881
OK,79,26,828,79,2014-10-02T09:50:00,0,28236096,201881
OK,69,30,828,69,2014-10-02T09:55:00,6,28236542,201881
OK,69,30,828,69,2014-10-02T10:00:00,6,28236947,201881
OK,67,31,828,67,2014-10-02T10:05:00,0,28237393,201881
OK,78,27,828,78,2014-10-02T10:10:00,6,28237841,201881
OK,38,55,828,38,2014-10-02T10:15:00,5,28238289,201881
OK,42,50,828,42,2014-10-02T10:20:00,2,28238730,201881
OK,38,55,828,38,2014-10-02T10:25:00,0,28239178,201881
OK,38,55,828,38,2014-10-02T10:30:00,0,28239609,201881
OK,77,27,828,77,2014-10-02T10:35:00,5,28240057,201881
OK,105,20,828,105,2014-10-02T10:40:00,6,28240502,201881
OK,93,22,828,93,2014-10-02T10:45:00,4,28240950,201881
OK,44,47,828,44,2014-10-02T10:50:00,1,28241383,201881
OK,111,18,828,111,2014-10-02T10:55:00,7,28241830,201881
OK,54,39,828,54,2014-10-02T11:00:00,2,28242228,201881
OK,54,39,828,54,2014-10-02T11:05:00,0,28242675,201881
OK,87,24,828,87,2014-10-02T11:15:00,3,28243124,201881
OK,60,35,828,60,2014-10-02T11:20:00,3,28243888,201881
OK,60,35,828,60,2014-10-02T11:25:00,1,28244317,201881
OK,60,35,828,60,2014-10-02T11:30:00,0,28244765,201881
OK,73,28,828,73,2014-10-02T11:35:00,5,28245214,201881
OK,72,29,828,72,2014-10-02T11:40:00,2,28245622,201881
OK,72,29,828,72,2014-10-02T11:45:00,0,28246069,201881
OK,103,20,828,103,2014-10-02T11:50:00,4,28246506,201881
OK,87,24,828,87,2014-10-02T11:55:00,2,28246955,201881
OK,63,33,828,63,2014-10-02T12:00:00,2,28247401,201881
OK,49,42,828,49,2014-10-02T12:05:00,1,28247833,201881
OK,49,42,828,49,2014-10-02T12:10:00,0,28248280,201881
OK,109,19,828,109,2014-10-02T12:15:00,3,28248728,201881
OK,109,19,828,109,2014-10-02T12:20:00,0,28249156,201881
OK,73,28,828,73,2014-10-02T12:25:00,2,28249599,201881
OK,73,28,828,73,2014-10-02T12:30:00,0,28250018,201881
OK,110,19,828,110,2014-10-02T12:35:00,4,28250416,201881
OK,155,13,828,155,2014-10-02T12:45:00,10,28251196,201881
OK,127,16,828,127,2014-10-02T13:20:00,8,28251741,201881
OK,112,18,828,112,2014-10-02T13:30:00,3,28252325,201881
OK,185,11,828,185,2014-10-02T13:35:00,1,28252767,201881
OK,185,11,828,185,2014-10-02T13:40:00,0,28253184,201881
OK,131,16,828,131,2014-10-02T13:45:00,3,28253633,201881
OK,157,13,828,157,2014-10-02T13:50:00,1,28254039,201881
OK,157,13,828,157,2014-10-02T13:55:00,5,28254359,201881
OK,113,18,828,113,2014-10-02T14:10:00,4,28254936,201881
OK,189,11,828,189,2014-10-02T14:15:00,7,28255385,201881
OK,254,8,828,254,2014-10-02T14:20:00,8,28255813,201881
OK,254,8,828,254,2014-10-02T14:25:00,4,28256262,201881
OK,414,5,828,414,2014-10-02T14:30:00,11,28256690,201881
OK,447,4,828,447,2014-10-02T14:35:00,11,28257139,201881
OK,465,4,828,465,2014-10-02T14:40:00,7,28257580,201881
OK,367,5,828,367,2014-10-02T14:45:00,11,28258028,201881
OK,327,6,828,327,2014-10-02T14:50:00,11,28258461,201881
OK,312,6,828,312,2014-10-02T14:55:00,6,28258907,201881
OK,301,6,828,301,2014-10-02T15:00:00,11,28259356,201881
OK,151,13,828,151,2014-10-02T15:05:00,8,28259803,201881
OK,94,22,828,94,2014-10-02T15:10:00,3,28260236,201881
OK,75,28,828,75,2014-10-02T15:15:00,4,28260685,201881
OK,66,31,828,66,2014-10-02T15:20:00,2,28261125,201881
OK,101,20,828,101,2014-10-02T15:25:00,7,28261507,201881
OK,93,22,828,93,2014-10-02T15:30:00,4,28261937,201881
OK,114,18,828,114,2014-10-02T15:35:00,2,28262384,201881
OK,120,17,828,120,2014-10-02T15:40:00,1,28262830,201881
OK,83,25,828,83,2014-10-02T15:45:00,3,28263268,201881
OK,83,25,828,83,2014-10-02T15:50:00,3,28263709,201881
OK,83,25,828,83,2014-10-02T15:55:00,0,28264111,201881
OK,83,25,828,83,2014-10-02T16:00:00,0,28264560,201881
OK,127,16,828,127,2014-10-02T16:05:00,3,28264998,201881
OK,119,17,828,119,2014-10-02T16:10:00,3,28265438,201881
OK,119,17,828,119,2014-10-02T16:15:00,1,28265834,201881